Location: Sungai Liu
(2.3667°N, 113.8667°E)
Time: 13:57:12
(UTC+00:00)

YAOGAN 6 - Pass Details

Date: 20 May 2022
Orbit: 460 x 493 km, 97.1° (Epoch: 07 July)

Event Time Altitude Azimuth Distance (km) Brightness Sun altitude
Rises 21:13:33 0° 347° (NNW) 2,540 6.3 -15.0°
Reaches altitude 10° 21:16:00 10° 329° (NNW) 1,669 5.2 -14.4°
Maximum altitude 21:18:40 20° 281° (W) 1,183 4.0 -13.8°
Enters shadow 21:18:49 20° 278° (W) 1,185 4.0 -13.8°
